Weather History for Luxor, Egypt

Change the Weather History Date:

Sunday, January 5, 2014

  Actual Average Record
Temperature  
Mean Temperature 60 °F -  
Max Temperature 69 °F 71 °F 84 °F (2006)
Min Temperature 51 °F 44 °F 35 °F (2002)
Degree Days  
Heating Degree Days 5    
Growing Degree Days 10 (Base 50)    
Moisture  
Dew Point 50 °F    
Average Humidity 71    
Maximum Humidity 88    
Minimum Humidity 43    
Precipitation  
Precipitation 0.00 in 0.00 in - ()
Sea Level Pressure  
Sea Level Pressure 30.03 in    
Wind  
Wind Speed 3 mph ()    
Max Wind Speed 12 mph    
Max Gust Speed -    
Visibility 3.1 miles    
Events      
Averages and records for this station are not official NWS values.
T = Trace of Precipitation, MM = Missing Value Source: Averaged Metar Reports

Daily Weather History Graph

Daily Weather History Graph

Search for Another Location

Airport:

Trip Planner

Search our weather history database for the weather conditions in past years. The results will help you decide how hot, cold, wet, or windy it might be!

Date:

Astronomy

Jan. 05, 2014 Rise Set
Actual Time 6:36 AM EET 5:12 PM EET
Civil Twilight 6:11 AM EET 5:37 PM EET
Nautical Twilight 5:43 AM EET 6:06 PM EET
Astronomical Twilight 5:14 AM EET 6:34 PM EET
Moon 9:34 AM EET (1/5) 9:46 PM EET (1/5)
Length of Visible Light 11h 26m
Length of Day
10h 36m
Waxing Crescent, 21% of the Moon is Illuminated
Jan 5
Waxing Crescent
Jan 8
First Quarter
Jan 16
Full
Jan 24
Last Quarter
Jan 30
New

Hourly Weather History & Observations

Time (EET) Temp. Dew Point Humidity Pressure Visibility Wind Dir Wind Speed Gust Speed Precip Events Conditions
12:00 AM 57.2 °F 48.2 °F 72% 30.01 in - SE 3.5 mph - N/A   Clear
1:00 AM 53.6 °F 48.2 °F 82% 30.01 in - Calm Calm - N/A   Clear
2:00 AM 53.6 °F 46.4 °F 77% 30.01 in - Calm Calm - N/A   Clear
3:00 AM 53.6 °F 50.0 °F 88% 30.01 in - WNW 2.3 mph - N/A   Clear
4:00 AM 51.8 °F 48.2 °F 88% 30.01 in - SSE 2.3 mph - N/A   Clear
5:00 AM 51.8 °F 48.2 °F 88% 30.01 in - Calm Calm - N/A   Clear
6:00 AM 53.6 °F 50.0 °F 88% 30.04 in - Calm Calm - N/A   Clear
7:00 AM 53.6 °F 50.0 °F 88% 30.06 in - WSW 2.3 mph - N/A   Clear
8:00 AM 57.2 °F 51.8 °F 82% 30.06 in 3.7 mi Calm Calm - N/A   Unknown
9:00 AM 57.2 °F 51.8 °F 82% 30.09 in 2.5 mi South 3.5 mph - N/A   Mist
10:00 AM 60.8 °F 53.6 °F 77% 30.06 in 2.5 mi West 3.5 mph - N/A   Mist
11:00 AM 62.6 °F 51.8 °F 68% 30.04 in 3.1 mi West 6.9 mph - N/A   Haze
12:00 PM 66.2 °F 53.6 °F 64% 30.04 in 3.1 mi WSW 3.5 mph - N/A   Haze
1:00 PM 68.0 °F 53.6 °F 60% 30.01 in 3.7 mi NW 6.9 mph - N/A   Unknown
2:00 PM 68.0 °F 53.6 °F 60% 30.01 in - NW 9.2 mph - N/A   Clear
3:00 PM 69.8 °F 51.8 °F 53% 29.98 in - NNW 4.6 mph - N/A   Clear
4:00 PM 69.8 °F 50.0 °F 49% 29.98 in - NW 5.8 mph - N/A   Clear
5:00 PM 68.0 °F 44.6 °F 43% 30.01 in - NW 9.2 mph - N/A   Clear
6:00 PM 62.6 °F 50.0 °F 63% 30.04 in - West 4.6 mph - N/A   Clear
7:00 PM 62.6 °F 50.0 °F 63% 30.04 in - WNW 11.5 mph - N/A   Clear
8:00 PM 60.8 °F 50.0 °F 68% 30.06 in - WNW 6.9 mph - N/A   Clear
9:00 PM 59.0 °F 48.2 °F 67% 30.06 in - Calm Calm - N/A   Clear
10:00 PM 59.0 °F 46.4 °F 63% 30.06 in - NW 3.5 mph - N/A   Clear
11:00 PM 59.0 °F 48.2 °F 67% 30.06 in - Calm Calm - N/A   Clear